Regional Weather Roundup
Issued by NWS

Home | Current Version | Previous Version | Text Only | Print | Product List | Glossary Off
Versions: 1 2 3 4 5 6 7 8 9 10 11 12 13 14 15 16 17 18 19 20 21 22 23 24 25 26 27 28 29 30 31 32 33 34 35 36 37 38 39 40 41 42 43 44 45 46 47 48 49 50

000
ASUS43 KTOP 272008
RWRKS

WEATHER ROUNDUP FOR KANSAS
NATIONAL WEATHER SERVICE GOODLAND KS
200 PM CST FRI FEB 27 2015

NOTE:  "FAIR" INDICATES FEW OR NO CLOUDS BELOW 12,000 FEET WITH NO
SIGNIFICANT WEATHER AND/OR OBSTRUCTIONS TO VISIBILITY.

KSZ001>006-013>018-027>032-041>047-272100-
NORTHWEST KANSAS

CITY           SKY/WX    TMP DP  RH WIND       PRES   REMARKS
GOODLAND       CLOUDY    17   9  70 S22G29    30.20F WCI   0
HAYS           CLOUDY    18  -2  41 SE7       30.43F
HILL CITY      CLOUDY    20   2  45 SE13      30.39F WCI   7
RUSSELL        CLOUDY    18   1  47 NE3       30.44F
$$

KSZ061>065-074>080-084>089-272100-
SOUTHWEST KANSAS

CITY           SKY/WX    TMP DP  RH WIND       PRES   REMARKS
DODGE CITY     MIX PCPN  16   6  65 SE13      30.36F WCI   2
ELKHART          N/A     13   4  68 SE16        N/A  WCI  -3
GARDEN CITY    LGT SNOW  14   7  73 S16       30.31F WCI  -2
GREAT BEND     CLOUDY    18   3  53 SE8       30.45F
LIBERAL        CLOUDY    16   7  67 SE18      30.33F WCI  -1
PRATT          LGT SNOW  16   9  73 SE7       30.46F VSB 1
$$

KSZ066>073-081>083-090>101-272100-
SOUTHEAST KANSAS

CITY           SKY/WX    TMP DP  RH WIND       PRES   REMARKS
CHANUTE        CLOUDY    18   2  49 E7        30.56F
COFFEYVILLE    CLOUDY    20   1  43 E7        30.57F
HUTCHINSON     LGT SNOW  16   8  71 SE9       30.50F
MEDICINE LODGE   N/A     14   9  80 SE7       30.49F
NEWTON         MOSUNNY   16   1  53 SE12      30.51S WCI   3
PARSONS        CLOUDY    20   1  43 E6        30.57F
WICHITA INTL   LGT SNOW  16   8  71 SE7       30.52F
WICHITA JABRA  LGT SNOW  15   7  70 S5        30.52S
WICHITA MCCONL LGT SNOW  16   9  73 SE6       30.51F
WINFIELD       CLOUDY    18   5  57 SE6       30.54F
$$

KSZ007>012-019>026-033>040-048>060-102>105-272100-
NORTHEAST KANSAS

CITY           SKY/WX    TMP DP  RH WIND       PRES   REMARKS
CONCORDIA      PTSUNNY   18   1  47 VRB6      30.49F
EMPORIA        PTSUNNY   18   0  45 SE8       30.52F
LAWRENCE       CLOUDY    16  -1  47 CALM      30.59F
MANHATTAN      PTSUNNY   17   1  49 CALM      30.54F
MARYSVILLE     MOSUNNY   19   1  45 SE3       30.52F
OLATHE IND     PTSUNNY   16  -1  47 CALM      30.57F
OLATHE EXE     PTSUNNY   17  -2  43 VRB3      30.55F
SALINA         CLOUDY    18   0  45 CALM      30.52F
TOPEKA BILLARD CLOUDY    15  -1  49 VRB3      30.58F
TOPEKA FORBES  PTSUNNY   17   0  47 E7        30.55F
$$


USA.gov is the U.S. government's official web portal to all federal, state and local government web resources and services.